When you browse on this site, cookies collect data to enhance your experience and personalize the content and advertising you see.
Visit our Privacy Policy to learn more. By continuing to use the site, you agree to this use of cookies and data.
  • In Hungary
  • List of Countries
  • For 7 days
  • Water Temperature
  • Weather Map
  • News
  • Weather Widgets
  • user-avatar
    Login

    Hourly Weather Odienne

    Today, 11 December, Wednesday

    Time Temperature Precipitation Wind Pressure Humidity
    00:00 +22°C° 0 mm 0 mps 722 mmHg 31%
    01:00 +21°C° 0 mm 0 mps 722 mmHg 31%
    02:00 +23°C° 0 mm 1 mps 722 mmHg 32%
    03:00 +22°C° 0 mm 1 mps 722 mmHg 32%
    04:00 +21°C° 0 mm 1 mps 722 mmHg 31%
    05:00 +21°C° 0 mm 1 mps 722 mmHg 30%
    06:00 +23°C° 0 mm 1 mps 723 mmHg 28%
    07:00 +25°C° 0 mm 1 mps 723 mmHg 25%
    08:00 +27°C° 0 mm 1 mps 724 mmHg 23%
    09:00 +30°C° 0 mm 1 mps 723 mmHg 20%
    10:00 +34°C° 0 mm 2 mps 723 mmHg 17%
    11:00 +36°C° 0 mm 2 mps 723 mmHg 14%
    12:00 +37°C° 0 mm 2 mps 722 mmHg 14%
    13:00 +37°C° 0 mm 2 mps 721 mmHg 13%
    14:00 +38°C° 0 mm 2 mps 721 mmHg 12%
    15:00 +35°C° 0 mm 2 mps 721 mmHg 15%
    16:00 +32°C° 0 mm 1 mps 721 mmHg 19%
    17:00 +29°C° 0 mm 1 mps 721 mmHg 22%
    18:00 +28°C° 0 mm 1 mps 721 mmHg 22%
    19:00 +25°C° 0 mm 0 mps 722 mmHg 22%
    20:00 +23°C° 0 mm 0 mps 723 mmHg 23%
    21:00 +23°C° 0 mm 0 mps 722 mmHg 23%
    22:00 +22°C° 0 mm 0 mps 722 mmHg 24%
    23:00 +21°C° 0 mm 0 mps 722 mmHg 25%

    Tomorrow, 12 December, Thursday

    Time Temperature Precipitation Wind Pressure Humidity
    00:00 +21°C° 0 mm 0 mps 722 mmHg 25%
    01:00 +22°C° 0 mm 1 mps 722 mmHg 25%
    02:00 +22°C° 0 mm 1 mps 721 mmHg 25%
    03:00 +21°C° 0 mm 1 mps 721 mmHg 26%
    04:00 +20°C° 0 mm 1 mps 721 mmHg 26%
    05:00 +20°C° 0 mm 1 mps 721 mmHg 27%
    06:00 +22°C° 0 mm 1 mps 722 mmHg 25%
    07:00 +23°C° 0 mm 0 mps 723 mmHg 24%
    08:00 +25°C° 0 mm 0 mps 724 mmHg 22%
    09:00 +29°C° 0 mm 1 mps 723 mmHg 19%
    10:00 +32°C° 0 mm 1 mps 723 mmHg 16%
    11:00 +35°C° 0 mm 2 mps 723 mmHg 13%
    12:00 +36°C° 0 mm 2 mps 722 mmHg 12%
    13:00 +36°C° 0 mm 2 mps 722 mmHg 11%
    14:00 +37°C° 0 mm 2 mps 721 mmHg 10%
    15:00 +35°C° 0 mm 2 mps 721 mmHg 13%
    16:00 +31°C° 0 mm 1 mps 721 mmHg 16%
    17:00 +29°C° 0 mm 1 mps 721 mmHg 19%
    18:00 +28°C° 0 mm 1 mps 721 mmHg 20%
    19:00 +26°C° 0 mm 1 mps 722 mmHg 20%
    20:00 +23°C° 0 mm 0 mps 722 mmHg 20%
    21:00 +22°C° 0 mm 0 mps 722 mmHg 21%
    22:00 +22°C° 0 mm 0 mps 722 mmHg 21%
    23:00 +21°C° 0 mm 0 mps 722 mmHg 21%

    Day after tomorrow, 13 December, Friday

    Time Temperature Precipitation Wind Pressure Humidity
    00:00 +20°C° 0 mm 0 mps 722 mmHg 22%
    01:00 +20°C° 0 mm 0 mps 721 mmHg 22%
    02:00 +19°C° 0 mm 0 mps 721 mmHg 23%
    03:00 +19°C° 0 mm 0 mps 721 mmHg 23%
    04:00 +18°C° 0 mm 0 mps 722 mmHg 24%
    05:00 +17°C° 0 mm 0 mps 722 mmHg 25%
    06:00 +20°C° 0 mm 0 mps 723 mmHg 23%
    07:00 +23°C° 0 mm 0 mps 723 mmHg 22%
    08:00 +26°C° 0 mm 0 mps 724 mmHg 20%
    09:00 +30°C° 0 mm 1 mps 724 mmHg 17%
    10:00 +33°C° 0 mm 1 mps 724 mmHg 15%
    11:00 +36°C° 0 mm 1 mps 724 mmHg 12%
    12:00 +37°C° 0 mm 2 mps 723 mmHg 11%
    13:00 +37°C° 0 mm 2 mps 722 mmHg 11%
    14:00 +38°C° 0 mm 2 mps 721 mmHg 10%
    15:00 +35°C° 0 mm 2 mps 721 mmHg 13%
    16:00 +32°C° 0 mm 1 mps 721 mmHg 16%
    17:00 +30°C° 0 mm 1 mps 721 mmHg 19%
    18:00 +28°C° 0 mm 1 mps 721 mmHg 20%
    19:00 +27°C° 0 mm 1 mps 722 mmHg 20%
    20:00 +26°C° 0 mm 1 mps 723 mmHg 21%
    21:00 +23°C° 0 mm 0 mps 722 mmHg 21%
    22:00 +22°C° 0 mm 0 mps 722 mmHg 22%
    23:00 +22°C° 0 mm 0 mps 722 mmHg 23%

    14 December, Saturday

    Time Temperature Precipitation Wind Pressure Humidity
    00:00 +21°C° 0 mm 0 mps 722 mmHg 24%
    01:00 +21°C° 0 mm 0 mps 722 mmHg 25%
    02:00 +21°C° 0 mm 0 mps 721 mmHg 26%
    03:00 +21°C° 0 mm 0 mps 721 mmHg 28%
    04:00 +20°C° 0 mm 0 mps 722 mmHg 31%
    05:00 +20°C° 0 mm 0 mps 722 mmHg 34%
    06:00 +24°C° 0 mm 1 mps 723 mmHg 32%
    07:00 +26°C° 0 mm 1 mps 723 mmHg 30%
    08:00 +28°C° 0 mm 1 mps 724 mmHg 29%
    09:00 +30°C° 0 mm 1 mps 724 mmHg 28%
    10:00 +33°C° 0 mm 1 mps 723 mmHg 28%
    11:00 +35°C° 0 mm 1 mps 723 mmHg 28%
    12:00 +37°C° 0 mm 2 mps 723 mmHg 25%
    13:00 +37°C° 0 mm 2 mps 722 mmHg 22%
    14:00 +37°C° 0 mm 2 mps 721 mmHg 20%
    15:00 +35°C° 0 mm 2 mps 721 mmHg 20%
    16:00 +32°C° 0 mm 2 mps 721 mmHg 21%
    17:00 +30°C° 0 mm 2 mps 721 mmHg 22%
    18:00 +29°C° 0 mm 1 mps 722 mmHg 22%
    19:00 +28°C° 0 mm 1 mps 722 mmHg 22%
    20:00 +27°C° 0 mm 1 mps 723 mmHg 22%
    21:00 +26°C° 0 mm 1 mps 723 mmHg 22%
    22:00 +25°C° 0 mm 1 mps 722 mmHg 22%
    23:00 +25°C° 0 mm 1 mps 722 mmHg 22%

    15 December, Sunday

    Time Temperature Precipitation Wind Pressure Humidity
    00:00 +22°C° 0 mm 0 mps 722 mmHg 22%
    01:00 +21°C° 0 mm 0 mps 722 mmHg 23%
    02:00 +21°C° 0 mm 0 mps 721 mmHg 23%
    03:00 +20°C° 0 mm 0 mps 721 mmHg 24%
    04:00 +19°C° 0 mm 0 mps 721 mmHg 24%
    05:00 +21°C° 0 mm 1 mps 722 mmHg 25%
    06:00 +23°C° 0 mm 1 mps 722 mmHg 23%
    07:00 +25°C° 0 mm 1 mps 723 mmHg 21%
    08:00 +28°C° 0 mm 2 mps 724 mmHg 19%
    09:00 +30°C° 0 mm 2 mps 723 mmHg 17%
    10:00 +32°C° 0 mm 2 mps 723 mmHg 14%
    11:00 +36°C° 0 mm 3 mps 723 mmHg 11%
    12:00 +37°C° 0 mm 3 mps 722 mmHg 11%
    13:00 +37°C° 0 mm 2 mps 721 mmHg 11%
    14:00 +38°C° 0 mm 2 mps 721 mmHg 11%
    15:00 +36°C° 0 mm 2 mps 721 mmHg 13%
    16:00 +32°C° 0 mm 1 mps 720 mmHg 16%
    17:00 +30°C° 0 mm 1 mps 720 mmHg 19%
    18:00 +29°C° 0 mm 1 mps 721 mmHg 19%
    19:00 +27°C° 0 mm 1 mps 721 mmHg 20%
    20:00 +24°C° 0 mm 0 mps 722 mmHg 20%
    21:00 +23°C° 0 mm 0 mps 722 mmHg 21%
    22:00 +22°C° 0 mm 0 mps 721 mmHg 21%
    23:00 +22°C° 0 mm 0 mps 721 mmHg 22%

    16 December, Monday

    Time Temperature Precipitation Wind Pressure Humidity
    00:00 +21°C° 0 mm 0 mps 721 mmHg 22%
    01:00 +21°C° 0 mm 0 mps 721 mmHg 22%
    02:00 +20°C° 0 mm 0 mps 720 mmHg 23%
    03:00 +20°C° 0 mm 0 mps 720 mmHg 23%
    04:00 +19°C° 0 mm 0 mps 720 mmHg 24%
    05:00 +20°C° 0 mm 1 mps 721 mmHg 24%
    06:00 +23°C° 0 mm 1 mps 721 mmHg 23%
    07:00 +25°C° 0 mm 1 mps 722 mmHg 21%
    08:00 +28°C° 0 mm 1 mps 723 mmHg 20%
    09:00 +30°C° 0 mm 1 mps 722 mmHg 17%
    10:00 +32°C° 0 mm 2 mps 722 mmHg 14%
    11:00 +36°C° 0 mm 3 mps 722 mmHg 11%
    12:00 +36°C° 0 mm 2 mps 721 mmHg 10%
    13:00 +37°C° 0 mm 2 mps 721 mmHg 10%
    14:00 +38°C° 0 mm 2 mps 720 mmHg 10%
    15:00 +35°C° 0 mm 2 mps 720 mmHg 12%
    16:00 +32°C° 0 mm 1 mps 720 mmHg 15%
    17:00 +30°C° 0 mm 1 mps 719 mmHg 18%
    18:00 +28°C° 0 mm 1 mps 720 mmHg 18%
    19:00 +25°C° 0 mm 0 mps 720 mmHg 19%
    20:00 +23°C° 0 mm 0 mps 721 mmHg 19%
    21:00 +22°C° 0 mm 0 mps 721 mmHg 19%
    22:00 +22°C° 0 mm 0 mps 721 mmHg 19%
    23:00 +21°C° 0 mm 0 mps 721 mmHg 20%
    Show more